Погода в Большом Просекове

Россия / Курганская область     55°56′17″N   66°12′20″E
темп.,
°C
ветер,
м/с
пор.,
м/с
влажн.,
%
обл.,
%
осадки,
мм/ч
давл.,
гПа
погр.,
м
15 апреля, чт
чт1523:00+11зюз47865 0.0 1027103
02:00+9зюз368886 0.0 102677
05:00+8зюз359138 0.0 102674
08:00+11зюз368975 0.0 1025165
11:00+16зюз577212 0.0 1024538
14:00+19зюз675262 0.0 10221104
17:00+19зюз58499 0.0 1021984
20:00+13юз48665 0.0 1019104
16 апреля, пт
пт1623:00+11зюз488364 0.0 1018124
02:00+10зюз41083100 0.0 1017168
05:00+8з498856 0.0 1018167
08:00+8с61091100 0.0 1019590
11:00+4ссв61090100 0.1 1023647
14:00+9ссв674626 0.0 10241461
17:00+9ссв56405 0.0 10251607
20:00+5св33580 0.0 102639
17 апреля, сб
сб1723:00+3всв37683 0.0 1026127
02:00+1вюв34710 0.0 102666
05:000ю22720 0.0 102613
08:00+3з23600 0.0 1026242
11:00+7сз23420 0.0 10251308
14:00+9з343647 0.0 10241990
17:00+10з453693 0.0 10222070
20:00+6зюз375762 0.0 1021111
18 апреля, вс
вс1823:00+5юз486288 0.0 1020152
02:00+4зюз41167100 0.0 1017237
05:00+3зюз5127552 0.0 1015299
08:00+4з7137049 0.0 1012732
11:00+7зсз91260100 0.0 10121598
14:00+4ссз12145498 0.3 10151839
17:000с11144673 0.3 10221670
20:00−3с813450 0.0 10261447
19 апреля, пн
пн1923:00−5с813461 0.0 10281426
02:00−6с611495 0.0 10291314
05:00−7с610485 0.0 10311246
08:00−6с7941100 0.0 10331488
11:00−3с7832100 0.0 10331908
14:00−1с7828100 0.0 10322291
17:000ссв6828100 0.0 10322320
20:00−3ссв34435 0.0 103368